TimeEDT,TemperatureF,Dew PointF,Humidity,Sea Level PressureIn,VisibilityMPH,Wind Direction,Wind SpeedMPH,Gust SpeedMPH,PrecipitationIn,Events,Conditions,WindDirDegrees,DateUTC
12:40 AM,39.2,30.2,70,29.66,10.0,NNW,29.9,40.3,0.00,Rain,Light Rain,340,2012-10-30 04:40:00
1:29 AM,39.2,30.2,70,29.61,10.0,NNW,27.6,41.4,0.00,Rain,Light Rain,330,2012-10-30 05:29:00
1:53 AM,37.9,30.9,76,29.62,10.0,NNW,23.0,39.1,0.00,Rain,Light Rain,330,2012-10-30 05:53:00
3:00 AM,37.4,30.2,75,29.57,8.0,NNW,23.0,35.7,0.00,Snow,Light Snow,330,2012-10-30 07:00:00
3:53 AM,37.0,30.9,79,29.54,9.0,NNW,26.5,40.3,0.01,Rain,Light Rain,330,2012-10-30 07:53:00
4:30 AM,37.4,30.2,75,29.50,7.0,NNW,26.5,39.1,0.00,Snow,Light Snow,330,2012-10-30 08:30:00
4:53 AM,37.0,30.9,79,29.50,9.0,NNW,27.6,39.1,0.00,,Overcast,340,2012-10-30 08:53:00
5:42 AM,37.4,30.2,75,29.48,10.0,NNW,26.5,36.8,0.01,,Overcast,340,2012-10-30 09:42:00
6:54 AM,37.9,32.0,79,29.48,7.0,NNW,24.2,35.7,0.00,Rain,Light Rain,340,2012-10-30 10:54:00
7:19 AM,37.4,32.0,81,29.47,8.0,NNW,25.3,33.4,0.00,Rain,Rain,340,2012-10-30 11:19:00
7:53 AM,37.0,30.9,79,29.47,8.0,NNW,25.3,34.5,0.02,Rain,Light Rain,340,2012-10-30 11:53:00
8:00 AM,37.4,30.2,75,29.46,7.0,NNW,26.5,34.5,0.00,Rain,Light Rain,340,2012-10-30 12:00:00
8:53 AM,37.0,32.0,82,29.47,6.0,NNW,20.7,34.5,0.04,Rain,Light Rain,340,2012-10-30 12:53:00
9:10 AM,37.4,32.0,81,29.46,4.0,NNW,23.0,33.4,0.02,Rain,Rain,340,2012-10-30 13:10:00
10:53 AM,41.0,34.0,76,29.45,10.0,North,21.9,38.0,0.02,,Unknown,350,2012-10-30 14:53:00
11:53 AM,43.0,36.0,76,29.45,10.0,NNW,25.3,40.3,N/A,,Unknown,340,2012-10-30 15:53:00
12:02 PM,42.8,35.6,76,29.44,10.0,NNW,24.2,34.5,N/A,,Overcast,340,2012-10-30 16:02:00
12:53 PM,45.0,36.0,71,29.44,10.0,NNW,26.5,38.0,N/A,,Overcast,340,2012-10-30 16:53:00
1:00 PM,44.6,35.6,71,29.44,10.0,North,28.8,43.7,N/A,,Overcast,350,2012-10-30 17:00:00
1:53 PM,46.0,36.0,68,29.44,10.0,NNW,24.2,36.8,N/A,,Unknown,340,2012-10-30 17:53:00
2:11 PM,46.4,37.4,71,29.43,10.0,NNW,24.2,34.5,N/A,,Overcast,340,2012-10-30 18:11:00
2:53 PM,46.0,36.0,68,29.44,10.0,NNW,23.0,34.5,N/A,,Overcast,340,2012-10-30 18:53:00
3:53 PM,45.0,36.0,71,29.44,10.0,North,23.0,31.1,N/A,,Overcast,350,2012-10-30 19:53:00
4:53 PM,44.1,36.0,73,29.47,10.0,NNW,20.7,26.5,0.00,,Overcast,340,2012-10-30 20:53:00
6:09 PM,42.8,35.6,76,29.48,10.0,NNW,20.7,27.6,0.01,Rain,Light Rain,330,2012-10-30 22:09:00
6:27 PM,42.8,35.6,76,29.48,10.0,NNW,19.6,27.6,0.01,Rain,Light Rain,330,2012-10-30 22:27:00
6:53 PM,42.1,36.0,79,29.49,9.0,NNW,18.4,26.5,0.04,Rain,Light Rain,330,2012-10-30 22:53:00
8:53 PM,41.0,35.1,79,29.51,10.0,NNW,21.9,28.8,0.00,,Overcast,330,2012-10-31 00:53:00
9:53 PM,41.0,35.1,79,29.51,10.0,NNW,17.3,29.9,0.00,,Overcast,330,2012-10-31 01:53:00
10:53 PM,41.0,34.0,76,29.52,10.0,NW,20.7,27.6,N/A,,Overcast,320,2012-10-31 02:53:00
11:53 PM,39.9,34.0,79,29.51,10.0,NW,21.9,26.5,N/A,,Overcast,320,2012-10-31 03:53:00